{"data":{"norad_id":52700,"intl_designator":"2022-053AW","name":"STARLINK-4034","alt_names":[],"object_type":"PAYLOAD","status":"ACTIVE","operator":null,"country":"US","launch_date":"2022-05-18","launch_site_code":"AFETR","launch_vehicle":null,"mission":null,"orbit_class":"UNKNOWN","rcs_meters":null,"size_class":null,"mass_kg":null,"dimensions":null,"purposes":["comms"],"wikipedia_slug":null,"has_3d_model":false,"image_url":null,"decayed_at":null,"tle_current":{"epoch":"2026-05-25T01:27:44.086752Z","epoch_age_seconds":60028,"freshness":"FRESH","line1":"1 52700U 22053AW  26145.06092693 -.00000106  00000+0  11451-4 0  9992","line2":"2 52700  53.2143 165.9173 0001006  72.5850 287.5252 15.08837379222626","mean_motion":15.08837379,"eccentricity":0.0001006,"inclination_deg":53.2143,"raan_deg":165.9173,"arg_perigee_deg":72.585,"mean_anomaly_deg":287.5252,"bstar":1.1451e-5,"rev_number":22262,"period_min":95.437720462253,"perigee_km":539.05546075108,"apogee_km":540.44733989722,"semimajor_km":6917.8884003242,"source":"CELESTRAK","updated_at":"2026-05-25T13:38:17.238344Z"}}}